Time,TemperatureF,DewpointF,PressureIn,WindDirection,WindDirectionDegrees,WindSpeedMPH,WindSpeedGustMPH,Humidity,HourlyPrecipIn,Conditions,Clouds,dailyrainin,SoftwareType,DateUTC
2013-04-23 00:01:00,14.0,12.0,-100.00,NNW,343,0.0,1.0,90,0.00,,,-99.99,,2013-04-23 06:01:00,
2013-04-23 00:12:00,13.0,11.0,-100.00,NW,312,1.0,1.0,92,0.00,,,-99.99,,2013-04-23 06:12:00,
2013-04-23 00:21:00,13.0,11.0,-100.00,North,4,1.0,2.0,93,0.00,,,-99.99,,2013-04-23 06:21:00,
2013-04-23 00:32:00,13.0,11.0,-100.00,North,4,1.0,2.0,93,0.00,,,-99.99,,2013-04-23 06:32:00,
2013-04-23 00:41:00,13.0,11.0,-100.00,NW,323,1.0,1.0,94,0.00,,,-99.99,,2013-04-23 06:41:00,
2013-04-23 00:52:00,11.0,10.0,-100.00,NW,309,1.0,2.0,94,0.00,,,-99.99,,2013-04-23 06:52:00,
2013-04-23 01:02:00,11.0,10.0,-100.00,NW,309,1.0,2.0,94,0.00,,,-99.99,,2013-04-23 07:02:00,
2013-04-23 01:11:00,12.0,11.0,-100.00,NNW,340,0.0,1.0,95,0.00,,,-99.99,,2013-04-23 07:11:00,
2013-04-23 01:21:00,12.0,11.0,-100.00,NNW,340,0.0,1.0,95,0.00,,,-99.99,,2013-04-23 07:21:00,
2013-04-23 01:32:00,12.0,11.0,-100.00,NNW,340,0.0,1.0,95,0.00,,,-99.99,,2013-04-23 07:32:00,
2013-04-23 01:42:00,12.0,11.0,-100.00,NNW,340,1.0,1.0,95,0.00,,,-99.99,,2013-04-23 07:42:00,
2013-04-23 01:52:00,11.0,10.0,-100.00,West,272,0.0,1.0,94,0.00,,,-99.99,,2013-04-23 07:52:00,
2013-04-23 02:01:00,11.0,10.0,-100.00,West,272,0.0,1.0,94,0.00,,,-99.99,,2013-04-23 08:01:00,
2013-04-23 02:11:00,12.0,10.0,-100.00,NW,318,1.0,2.0,94,0.00,,,-99.99,,2013-04-23 08:11:00,
2013-04-23 02:21:00,12.0,11.0,-100.00,NNW,346,1.0,1.0,95,0.00,,,-99.99,,2013-04-23 08:21:00,
2013-04-23 02:31:00,12.0,11.0,-100.00,NNW,346,1.0,1.0,95,0.00,,,-99.99,,2013-04-23 08:31:00,
2013-04-23 02:42:00,11.0,10.0,-100.00,West,274,0.0,1.0,95,0.00,,,-99.99,,2013-04-23 08:42:00,
2013-04-23 02:52:00,11.0,10.0,-100.00,West,272,0.0,2.0,95,0.00,,,-99.99,,2013-04-23 08:52:00,
2013-04-23 03:01:00,11.0,10.0,-100.00,West,272,0.0,2.0,95,0.00,,,-99.99,,2013-04-23 09:01:00,
2013-04-23 03:11:00,12.0,11.0,-100.00,WSW,257,0.0,2.0,96,0.00,,,-99.99,,2013-04-23 09:11:00,
2013-04-23 03:21:00,11.0,10.0,-100.00,West,272,0.0,0.0,95,0.00,,,-99.99,,2013-04-23 09:21:00,
2013-04-23 03:32:00,11.0,10.0,-100.00,West,272,0.0,0.0,95,0.00,,,-99.99,,2013-04-23 09:32:00,
2013-04-23 03:42:00,13.0,12.0,-100.00,NW,326,1.0,2.0,96,0.00,,,-99.99,,2013-04-23 09:42:00,
2013-04-23 03:53:00,13.0,12.0,-100.00,NW,326,1.0,2.0,96,0.00,,,-99.99,,2013-04-23 09:53:00,
2013-04-23 04:02:00,13.0,12.0,-100.00,NW,326,1.0,2.0,96,0.00,,,-99.99,,2013-04-23 10:02:00,
2013-04-23 04:12:00,12.0,10.0,-100.00,WSW,246,0.0,0.0,94,0.00,,,-99.99,,2013-04-23 10:12:00,
2013-04-23 04:22:00,12.0,10.0,-100.00,WSW,241,0.0,1.0,93,0.00,,,-99.99,,2013-04-23 10:22:00,
2013-04-23 04:32:00,12.0,10.0,-100.00,WSW,241,0.0,1.0,93,0.00,,,-99.99,,2013-04-23 10:32:00,
2013-04-23 04:42:00,13.0,11.0,-100.00,WSW,258,0.0,0.0,94,0.00,,,-99.99,,2013-04-23 10:42:00,
2013-04-23 04:52:00,14.0,13.0,-100.00,ESE,112,1.0,2.0,94,0.00,,,-99.99,,2013-04-23 10:52:00,
2013-04-23 05:02:00,14.0,13.0,-100.00,ESE,112,1.0,2.0,94,0.00,,,-99.99,,2013-04-23 11:02:00,
2013-04-23 05:12:00,16.0,15.0,-100.00,SSW,192,4.0,6.0,94,0.00,,,-99.99,,2013-04-23 11:12:00,
2013-04-23 05:21:00,15.0,12.0,-100.00,NW,325,1.0,2.0,91,0.00,,,-99.99,,2013-04-23 11:21:00,
2013-04-23 05:32:00,15.0,12.0,-100.00,NW,325,1.0,2.0,91,0.00,,,-99.99,,2013-04-23 11:32:00,
2013-04-23 05:42:00,15.0,13.0,-100.00,ESE,103,1.0,2.0,94,0.00,,,-99.99,,2013-04-23 11:42:00,
2013-04-23 05:53:00,14.0,12.0,-100.00,NE,55,0.0,2.0,94,0.00,,,-99.99,,2013-04-23 11:53:00,
2013-04-23 06:02:00,14.0,12.0,-100.00,NE,55,0.0,2.0,94,0.00,,,-99.99,,2013-04-23 12:02:00,
2013-04-23 06:12:00,14.0,13.0,-100.00,SSW,199,1.0,2.0,95,0.00,,,-99.99,,2013-04-23 12:12:00,
2013-04-23 06:22:00,15.0,14.0,-100.00,SE,127,3.0,5.0,96,0.00,,,-99.99,,2013-04-23 12:22:00,
2013-04-23 06:32:00,15.0,14.0,-100.00,SE,127,3.0,5.0,96,0.00,,,-99.99,,2013-04-23 12:32:00,
2013-04-23 06:41:00,15.0,13.0,-100.00,SE,133,0.0,2.0,93,0.00,,,-99.99,,2013-04-23 12:41:00,
2013-04-23 06:52:00,15.0,13.0,-100.00,SE,133,0.0,2.0,93,0.00,,,-99.99,,2013-04-23 12:52:00,
2013-04-23 07:01:00,15.0,13.0,-100.00,SE,133,0.0,2.0,93,0.00,,,-99.99,,2013-04-23 13:01:00,
2013-04-23 07:11:00,15.0,13.0,-100.00,ENE,59,1.0,2.0,94,0.00,,,-99.99,,2013-04-23 13:11:00,
2013-04-23 07:21:00,14.0,13.0,-100.00,SW,227,0.0,1.0,95,0.00,,,-99.99,,2013-04-23 13:21:00,
2013-04-23 07:32:00,14.0,13.0,-100.00,SW,227,0.0,1.0,95,0.00,,,-99.99,,2013-04-23 13:32:00,
2013-04-23 07:41:00,15.0,15.0,-100.00,SE,130,2.0,4.0,98,0.00,,,-99.99,,2013-04-23 13:41:00,
2013-04-23 07:52:00,15.0,14.0,-100.00,SW,233,0.0,1.0,96,0.00,,,-99.99,,2013-04-23 13:52:00,
2013-04-23 08:01:00,15.0,14.0,-100.00,SW,233,0.0,1.0,96,0.00,,,-99.99,,2013-04-23 14:01:00,
2013-04-23 08:11:00,16.0,15.0,-100.00,SSE,152,2.0,2.0,97,0.00,,,-99.99,,2013-04-23 14:11:00,
2013-04-23 08:22:00,18.0,16.0,-100.00,SE,130,4.0,5.0,90,0.00,,,-99.99,,2013-04-23 14:22:00,
2013-04-23 08:31:00,18.0,16.0,-100.00,SE,130,4.0,5.0,90,0.00,,,-99.99,,2013-04-23 14:31:00,
2013-04-23 08:42:00,20.0,16.0,-100.00,SE,126,3.0,5.0,83,0.00,,,-99.99,,2013-04-23 14:42:00,
2013-04-23 08:52:00,20.0,16.0,-100.00,SE,126,3.0,5.0,83,0.00,,,-99.99,,2013-04-23 14:52:00,
2013-04-23 09:01:00,20.0,16.0,-100.00,SE,126,3.0,5.0,83,0.00,,,-99.99,,2013-04-23 15:01:00,
2013-04-23 09:11:00,22.0,16.0,-100.00,ESE,112,4.0,6.0,77,0.00,,,-99.99,,2013-04-23 15:11:00,
2013-04-23 09:21:00,22.0,16.0,-100.00,ESE,112,4.0,6.0,77,0.00,,,-99.99,,2013-04-23 15:21:00,
2013-04-23 09:32:00,22.0,16.0,-100.00,ESE,112,4.0,6.0,77,0.00,,,-99.99,,2013-04-23 15:32:00,
2013-04-23 09:42:00,23.0,17.0,-100.00,SE,126,5.0,9.0,74,0.00,,,-99.99,,2013-04-23 15:42:00,
2013-04-23 09:53:00,26.0,17.0,-100.00,SE,137,6.0,8.0,69,0.00,,,-99.99,,2013-04-23 15:53:00,
2013-04-23 10:02:00,26.0,17.0,-100.00,SE,137,6.0,8.0,69,0.00,,,-99.99,,2013-04-23 16:02:00,
2013-04-23 10:12:00,26.0,17.0,-100.00,SSE,152,6.0,10.0,69,0.00,,,-99.99,,2013-04-23 16:12:00,
2013-04-23 10:23:00,26.0,17.0,-100.00,SSE,152,6.0,10.0,69,0.00,,,-99.99,,2013-04-23 16:23:00,
2013-04-23 10:33:00,26.0,17.0,-100.00,SSE,152,6.0,10.0,69,0.00,,,-99.99,,2013-04-23 16:33:00,
2013-04-23 10:42:00,26.0,17.0,-100.00,SE,141,6.0,9.0,69,0.00,,,-99.99,,2013-04-23 16:42:00,
2013-04-23 10:53:00,26.0,17.0,-100.00,SE,141,6.0,9.0,69,0.00,,,-99.99,,2013-04-23 16:53:00,
2013-04-23 11:02:00,26.0,17.0,-100.00,SE,141,6.0,9.0,69,0.00,,,-99.99,,2013-04-23 17:02:00,
2013-04-23 11:11:00,27.0,17.0,-100.00,SE,134,8.0,11.0,67,0.00,,,-99.99,,2013-04-23 17:11:00,
2013-04-23 11:22:00,28.0,18.0,-100.00,SE,134,7.0,11.0,65,0.00,,,-99.99,,2013-04-23 17:22:00,
2013-04-23 11:32:00,28.0,18.0,-100.00,SE,134,7.0,11.0,65,0.00,,,-99.99,,2013-04-23 17:32:00,
2013-04-23 11:42:00,29.0,18.0,-100.00,ESE,119,7.0,11.0,63,0.00,,,-99.99,,2013-04-23 17:42:00,
2013-04-23 11:53:00,30.0,18.0,-100.00,SE,143,5.0,8.0,61,0.00,,,-99.99,,2013-04-23 17:53:00,
2013-04-23 12:02:00,30.0,18.0,-100.00,SE,143,5.0,8.0,61,0.00,,,-99.99,,2013-04-23 18:02:00,
2013-04-23 12:12:00,31.0,17.0,-100.00,SSE,147,5.0,7.0,57,0.00,,,-99.99,,2013-04-23 18:12:00,
2013-04-23 12:22:00,31.0,18.0,-100.00,SSE,158,3.0,8.0,59,0.00,,,-99.99,,2013-04-23 18:22:00,
2013-04-23 12:32:00,31.0,18.0,-100.00,SSE,158,3.0,8.0,59,0.00,,,-99.99,,2013-04-23 18:32:00,
2013-04-23 12:42:00,32.0,17.0,-100.00,SE,144,6.0,10.0,53,0.00,,,-99.99,,2013-04-23 18:42:00,
2013-04-23 12:52:00,32.0,17.0,-100.00,SE,144,6.0,10.0,53,0.00,,,-99.99,,2013-04-23 18:52:00,
2013-04-23 13:02:00,32.0,17.0,-100.00,SE,144,6.0,10.0,53,0.00,,,-99.99,,2013-04-23 19:02:00,
2013-04-23 13:11:00,33.0,14.0,-100.00,SE,126,4.0,5.0,46,0.00,,,-99.99,,2013-04-23 19:11:00,
2013-04-23 13:21:00,34.0,13.0,-100.00,West,261,4.0,6.0,42,0.00,,,-99.99,,2013-04-23 19:21:00,
2013-04-23 13:32:00,34.0,13.0,-100.00,West,261,4.0,6.0,42,0.00,,,-99.99,,2013-04-23 19:32:00,
2013-04-23 13:42:00,33.0,14.0,-100.00,NNW,340,5.0,11.0,45,0.00,,,-99.99,,2013-04-23 19:42:00,
2013-04-23 13:52:00,33.0,14.0,-100.00,NNW,340,5.0,11.0,45,0.00,,,-99.99,,2013-04-23 19:52:00,
2013-04-23 14:01:00,33.0,14.0,-100.00,NNW,340,5.0,11.0,45,0.00,,,-99.99,,2013-04-23 20:01:00,
2013-04-23 14:11:00,32.0,17.0,-100.00,NW,322,9.0,13.0,54,0.00,,,-99.99,,2013-04-23 20:11:00,
2013-04-23 14:21:00,32.0,17.0,-100.00,NW,322,9.0,13.0,54,0.00,,,-99.99,,2013-04-23 20:21:00,
2013-04-23 14:31:00,32.0,17.0,-100.00,NW,322,9.0,13.0,54,0.00,,,-99.99,,2013-04-23 20:31:00,
2013-04-23 14:41:00,33.0,17.0,-100.00,NW,319,11.0,17.0,51,0.00,,,-99.99,,2013-04-23 20:41:00,
2013-04-23 14:52:00,33.0,17.0,-100.00,NW,319,11.0,17.0,51,0.00,,,-99.99,,2013-04-23 20:52:00,
2013-04-23 15:01:00,33.0,17.0,-100.00,NW,319,11.0,17.0,51,0.00,,,-99.99,,2013-04-23 21:01:00,
2013-04-23 15:11:00,33.0,13.0,-100.00,NW,323,11.0,15.0,42,0.00,,,-99.99,,2013-04-23 21:11:00,
2013-04-23 15:21:00,33.0,17.0,-100.00,NNW,330,8.0,12.0,51,0.00,,,-99.99,,2013-04-23 21:21:00,
2013-04-23 15:32:00,33.0,17.0,-100.00,NNW,330,8.0,12.0,51,0.00,,,-99.99,,2013-04-23 21:32:00,
2013-04-23 15:43:00,33.0,15.0,-100.00,NW,305,7.0,12.0,46,0.00,,,-99.99,,2013-04-23 21:43:00,
2013-04-23 15:52:00,33.0,17.0,-100.00,NNW,335,8.0,14.0,52,0.00,,,-99.99,,2013-04-23 21:52:00,
2013-04-23 16:03:00,33.0,17.0,-100.00,NNW,335,8.0,14.0,52,0.00,,,-99.99,,2013-04-23 22:03:00,
2013-04-23 16:12:00,33.0,16.0,-100.00,WNW,302,7.0,11.0,49,0.00,,,-99.99,,2013-04-23 22:12:00,
2013-04-23 16:22:00,33.0,16.0,-100.00,NW,316,10.0,16.0,50,0.00,,,-99.99,,2013-04-23 22:22:00,
2013-04-23 16:33:00,33.0,16.0,-100.00,NW,316,10.0,16.0,50,0.00,,,-99.99,,2013-04-23 22:33:00,
2013-04-23 16:42:00,33.0,16.0,-100.00,NW,313,10.0,16.0,49,0.00,,,-99.99,,2013-04-23 22:42:00,
2013-04-23 16:52:00,33.0,16.0,-100.00,NW,313,10.0,16.0,49,0.00,,,-99.99,,2013-04-23 22:52:00,
2013-04-23 17:02:00,33.0,16.0,-100.00,NW,313,10.0,16.0,49,0.00,,,-99.99,,2013-04-23 23:02:00,
2013-04-23 17:12:00,34.0,16.0,-100.00,NW,320,6.0,10.0,46,0.00,,,-99.99,,2013-04-23 23:12:00,
2013-04-23 17:22:00,33.0,14.0,-100.00,NW,311,8.0,11.0,44,0.00,,,-99.99,,2013-04-23 23:22:00,
2013-04-23 17:31:00,33.0,14.0,-100.00,NW,311,8.0,11.0,44,0.00,,,-99.99,,2013-04-23 23:31:00,
2013-04-23 17:42:00,34.0,14.0,-100.00,WNW,301,7.0,11.0,43,0.00,,,-99.99,,2013-04-23 23:42:00,
2013-04-23 17:52:00,34.0,14.0,-100.00,NNW,332,8.0,13.0,43,0.00,,,-99.99,,2013-04-23 23:52:00,
2013-04-23 18:01:00,34.0,14.0,-100.00,NNW,332,8.0,13.0,43,0.00,,,-99.99,,2013-04-24 00:01:00,
2013-04-23 18:11:00,34.0,13.0,-100.00,NW,316,8.0,11.0,41,0.00,,,-99.99,,2013-04-24 00:11:00,
2013-04-23 18:21:00,33.0,15.0,-100.00,NW,325,9.0,12.0,47,0.00,,,-99.99,,2013-04-24 00:21:00,
2013-04-23 18:32:00,33.0,15.0,-100.00,NW,325,9.0,12.0,47,0.00,,,-99.99,,2013-04-24 00:32:00,
2013-04-23 18:41:00,33.0,14.0,-100.00,NW,304,6.0,9.0,44,0.00,,,-99.99,,2013-04-24 00:41:00,
2013-04-23 18:52:00,33.0,14.0,-100.00,NW,304,6.0,9.0,44,0.00,,,-99.99,,2013-04-24 00:52:00,
2013-04-23 19:01:00,33.0,14.0,-100.00,NW,304,6.0,9.0,44,0.00,,,-99.99,,2013-04-24 01:01:00,
2013-04-23 19:11:00,35.0,13.0,-100.00,NW,304,6.0,9.0,41,0.00,,,-99.99,,2013-04-24 01:11:00,
2013-04-23 19:21:00,33.0,15.0,-100.00,NW,322,7.0,10.0,48,0.00,,,-99.99,,2013-04-24 01:21:00,
2013-04-23 19:32:00,33.0,15.0,-100.00,NW,322,7.0,10.0,48,0.00,,,-99.99,,2013-04-24 01:32:00,
2013-04-23 19:42:00,33.0,16.0,-100.00,NW,323,7.0,9.0,49,0.00,,,-99.99,,2013-04-24 01:42:00,
2013-04-23 19:52:00,32.0,17.0,-100.00,NNW,328,6.0,9.0,55,0.00,,,-99.99,,2013-04-24 01:52:00,
2013-04-23 20:02:00,32.0,17.0,-100.00,NNW,328,6.0,9.0,55,0.00,,,-99.99,,2013-04-24 02:02:00,
2013-04-23 20:14:00,30.0,17.0,-100.00,WNW,301,5.0,8.0,58,0.00,,,-99.99,,2013-04-24 02:14:00,
2013-04-23 20:25:00,30.0,18.0,-100.00,NW,304,4.0,6.0,61,0.00,,,-99.99,,2013-04-24 02:25:00,
2013-04-23 20:35:00,30.0,18.0,-100.00,NW,304,4.0,6.0,61,0.00,,,-99.99,,2013-04-24 02:35:00,
2013-04-23 20:46:00,29.0,18.0,-100.00,WNW,292,3.0,5.0,62,0.00,,,-99.99,,2013-04-24 02:46:00,
2013-04-23 21:05:00,29.0,18.0,-100.00,NW,306,4.0,5.0,64,0.00,,,-99.99,,2013-04-24 03:05:00,
2013-04-23 21:14:00,29.0,18.0,-100.00,NW,308,4.0,5.0,66,0.00,,,-99.99,,2013-04-24 03:14:00,
2013-04-23 21:26:00,28.0,18.0,-100.00,WNW,291,4.0,7.0,64,0.00,,,-99.99,,2013-04-24 03:26:00,
2013-04-23 21:37:00,28.0,18.0,-100.00,WNW,291,4.0,7.0,64,0.00,,,-99.99,,2013-04-24 03:37:00,
2013-04-23 21:47:00,26.0,18.0,-100.00,NE,40,0.0,2.0,71,0.00,,,-99.99,,2013-04-24 03:47:00,
2013-04-23 22:02:00,25.0,18.0,-100.00,NNW,335,0.0,0.0,75,0.00,,,-99.99,,2013-04-24 04:02:00,
2013-04-23 22:12:00,25.0,18.0,-100.00,NNW,335,0.0,0.0,75,0.00,,,-99.99,,2013-04-24 04:12:00,
2013-04-23 22:22:00,24.0,18.0,-100.00,WNW,294,1.0,2.0,78,0.00,,,-99.99,,2013-04-24 04:22:00,
2013-04-23 22:33:00,24.0,18.0,-100.00,WNW,294,1.0,2.0,78,0.00,,,-99.99,,2013-04-24 04:33:00,
2013-04-23 22:43:00,22.0,17.0,-100.00,WNW,285,2.0,4.0,81,0.00,,,-99.99,,2013-04-24 04:43:00,
2013-04-23 22:53:00,22.0,17.0,-100.00,SW,226,0.0,0.0,82,0.00,,,-99.99,,2013-04-24 04:53:00,
2013-04-23 23:02:00,22.0,17.0,-100.00,SW,226,0.0,0.0,82,0.00,,,-99.99,,2013-04-24 05:02:00,
2013-04-23 23:12:00,22.0,17.0,-100.00,SW,226,0.0,0.0,82,0.00,,,-99.99,,2013-04-24 05:12:00,
2013-04-23 23:21:00,22.0,18.0,-100.00,North,1,1.0,2.0,84,0.00,,,-99.99,,2013-04-24 05:21:00,
2013-04-23 23:32:00,22.0,18.0,-100.00,North,1,1.0,2.0,84,0.00,,,-99.99,,2013-04-24 05:32:00,
2013-04-23 23:42:00,22.0,17.0,-100.00,NNW,336,1.0,2.0,83,0.00,,,-99.99,,2013-04-24 05:42:00,
2013-04-23 23:52:00,22.0,17.0,-100.00,NW,315,3.0,4.0,83,0.00,,,-99.99,,2013-04-24 05:52:00,